Weather History for Deering, AK

Change the Weather History Date:

Tuesday, December 18, 2012

  Actual Average (PAOT) Record (PAOT)
Temperature  
Mean Temperature -8 °F -  
Max Temperature 1 °F - 33 °F (1986)
Min Temperature -18 °F -5 °F -44 °F (1940)
Degree Days  
Heating Degree Days 74 63  
Month to date heating degree days 1105  
Since 1 July heating degree days 5464  
Cooling Degree Days 0    
Month to date cooling degree days  
Year to date cooling degree days  
Moisture  
Dew Point -15 °F    
Average Humidity 76    
Maximum Humidity 85    
Minimum Humidity 71    
Precipitation  
Precipitation 0.00 in 0.02 in 0.20 in (1938)
Month to date precipitation 0.45  
Year to date precipitation 10.69  
Snow  
Snow 0.00 in 0.40 in 3.20 in (1988)
Month to date snowfall 7.0  
Since 1 July snowfall 24.4  
Snow Depth -    
Sea Level Pressure  
Sea Level Pressure 29.63 in    
Wind  
Wind Speed 19 mph (WSW)    
Max Wind Speed 30 mph    
Max Gust Speed 34 mph    
Visibility 6 miles    
Events Snow    
T = Trace of Precipitation, MM = Missing Value Source: NWS Daily Summary

Daily Weather History Graph

Daily Weather History Graph

Search for Another Location

Airport:

Trip Planner

Search our weather history database for the weather conditions in past years. The results will help you decide how hot, cold, wet, or windy it might be!

Date:

Astronomy

Dec. 18, 2012 Rise Set
Actual Time 12:25 PM AKST 3:10 PM AKST
Civil Twilight 10:44 AM AKST 4:52 PM AKST
Nautical Twilight 9:26 AM AKST 6:09 PM AKST
Astronomical Twilight 8:21 AM AKST 7:14 PM AKST
Moon 1:09 PM AKST No Moon Set
Length of Visible Light 6h 08m
Length of Day
2h 44m
Waxing Crescent, 36% of the Moon is Illuminated
Dec 18
Waxing Crescent
Dec 19
First Quarter
Dec 28
Full
Jan 4
Last Quarter
Jan 11
New

Hourly Weather History & Observations

Time (AKST) Temp. Windchill Dew Point Humidity Pressure Visibility Wind Dir Wind Speed Gust Speed Precip Events Conditions
12:12 AM -0.4 °F -19.9 °F -7.6 °F 72% 29.33 in 9.0 mi SSW 15.0 mph - N/A   Overcast
12:51 AM -0.4 °F -22.3 °F -4.0 °F 85% 29.35 in 4.0 mi SW 19.6 mph - N/A Snow Blowing Snow
12:53 AM 1.0 °F -20.9 °F -4.0 °F 79% 29.35 in 3.0 mi SW 20.7 mph - N/A Snow Blowing Snow
1:06 AM -0.4 °F -22.8 °F -5.8 °F 78% 29.36 in 2.5 mi WSW 20.7 mph - N/A Snow Blowing Snow
1:16 AM -2.2 °F -23.5 °F -5.8 °F 85% 29.36 in 3.0 mi WSW 17.3 mph 26.5 mph N/A   Overcast
1:21 AM -2.2 °F -22.9 °F -7.6 °F 78% 29.36 in 2.5 mi SW 16.1 mph 26.5 mph N/A   Haze
1:30 AM -2.2 °F -27.1 °F -7.6 °F 78% 29.35 in 0.8 mi WSW 25.3 mph 33.4 mph 0.00 in   Unknown
1:38 AM -2.2 °F -28.8 °F -7.6 °F 78% 29.35 in 0.8 mi WSW 29.9 mph 34.5 mph 0.00 in   Unknown
1:53 AM -4.0 °F -30.0 °F -9.0 °F 79% 29.38 in 1.2 mi WSW 26.5 mph - 0.00 in   Haze
2:02 AM -5.8 °F -32.9 °F -9.4 °F 84% 29.38 in 1.8 mi WSW 27.6 mph - N/A   Haze
2:20 AM -5.8 °F -31.0 °F -11.2 °F 77% 29.40 in 3.0 mi WSW 23.0 mph - N/A   Haze
2:29 AM -5.8 °F -31.0 °F -11.2 °F 77% 29.41 in 4.0 mi WSW 23.0 mph - N/A   Haze
2:37 AM -7.6 °F -32.9 °F -11.2 °F 84% 29.42 in 4.0 mi WSW 21.9 mph - N/A   Haze
2:53 AM -7.1 °F -30.4 °F -11.9 °F 79% 29.44 in 5.0 mi WSW 18.4 mph - N/A   Haze
3:53 AM -9.0 °F -33.0 °F -14.1 °F 79% 29.47 in 9.0 mi WSW 18.4 mph - N/A   Clear
4:42 AM -9.4 °F -34.1 °F -14.8 °F 77% 29.50 in 5.0 mi WSW 19.6 mph - N/A   Haze
4:51 AM -9.4 °F -32.8 °F -14.8 °F 77% 29.50 in 4.0 mi WSW 17.3 mph - N/A   Haze
4:53 AM -9.9 °F -33.5 °F -15.0 °F 78% 29.51 in 4.0 mi WSW 17.3 mph - N/A   Haze
5:17 AM -9.4 °F -33.5 °F -16.6 °F 71% 29.52 in 9.0 mi WSW 18.4 mph - N/A   Scattered Clouds
5:35 AM -11.2 °F -35.8 °F -16.6 °F 77% 29.53 in 6.0 mi WSW 18.4 mph - N/A   Haze
5:53 AM -11.0 °F -33.5 °F -17.0 °F 75% 29.55 in 9.0 mi SW 15.0 mph - N/A   Partly Cloudy
6:53 AM -11.0 °F -38.4 °F -17.0 °F 75% 29.55 in 5.0 mi WSW 24.2 mph - N/A   Haze
7:21 AM -11.2 °F -37.6 °F -16.6 °F 77% 29.56 in 2.5 mi WSW 21.9 mph - N/A   Haze
7:29 AM -9.4 °F -34.7 °F -16.6 °F 71% 29.57 in 2.5 mi WSW 20.7 mph - N/A   Haze
7:42 AM -9.4 °F -34.1 °F -16.6 °F 71% 29.59 in 3.0 mi WSW 19.6 mph - N/A   Haze
7:53 AM -9.9 °F -34.8 °F -16.1 °F 74% 29.60 in 4.0 mi WSW 19.6 mph - N/A   Haze
8:53 AM -9.9 °F -32.8 °F -16.1 °F 74% 29.64 in 10.0 mi WSW 16.1 mph - N/A   Overcast
9:49 AM -9.4 °F -33.5 °F -16.6 °F 71% 29.65 in 10.0 mi WSW 18.4 mph - N/A   Mostly Cloudy
9:53 AM -9.9 °F -35.4 °F -17.0 °F 71% 29.66 in 10.0 mi WSW 20.7 mph - N/A   Mostly Cloudy
10:04 AM -9.4 °F -34.1 °F -16.6 °F 71% 29.67 in 10.0 mi WSW 19.6 mph - N/A   Scattered Clouds
10:53 AM -9.9 °F -31.3 °F -16.1 °F 74% 29.71 in 8.0 mi WSW 13.8 mph - N/A   Overcast
11:22 AM -11.2 °F -33.7 °F -16.6 °F 77% 29.72 in 8.0 mi WSW 15.0 mph - N/A   Overcast
11:53 AM -11.0 °F -33.5 °F -16.1 °F 78% 29.74 in 7.0 mi WSW 15.0 mph - N/A   Overcast
12:02 PM -9.4 °F -32.1 °F -16.6 °F 71% 29.75 in 6.0 mi WSW 16.1 mph - N/A   Haze
12:53 PM -11.0 °F -34.2 °F -17.0 °F 75% 29.78 in 5.0 mi WSW 16.1 mph - N/A   Haze
1:53 PM -13.0 °F -36.8 °F -18.0 °F 78% 29.81 in 8.0 mi WSW 16.1 mph - N/A   Clear
2:53 PM -13.0 °F -38.2 °F -18.9 °F 75% 29.84 in 7.0 mi West 18.4 mph - N/A   Clear
3:53 PM -14.1 °F -39.6 °F -18.9 °F 79% 29.88 in 10.0 mi WSW 18.4 mph - N/A   Mostly Cloudy
4:53 PM -14.1 °F -38.9 °F -20.0 °F 75% 29.92 in 8.0 mi WSW 17.3 mph - N/A   Mostly Cloudy
5:53 PM -15.0 °F -40.0 °F -20.9 °F 75% 29.96 in 10.0 mi WSW 17.3 mph - N/A   Mostly Cloudy
6:53 PM -17.0 °F -41.9 °F -23.1 °F 74% 30.02 in 10.0 mi WSW 16.1 mph - N/A   Clear
7:53 PM -18.0 °F -42.5 °F -24.0 °F 74% 30.04 in 10.0 mi WSW 15.0 mph - N/A   Clear
8:53 PM -18.0 °F -42.5 °F -23.1 °F 78% 30.07 in 10.0 mi WSW 15.0 mph - N/A   Clear
9:53 PM -17.0 °F -40.2 °F -23.1 °F 74% 30.10 in 10.0 mi WSW 13.8 mph - N/A   Clear
10:53 PM -18.9 °F -37.2 °F -24.0 °F 78% 30.13 in 10.0 mi SSW 8.1 mph - N/A   Clear
11:53 PM -18.9 °F -35.8 °F -25.1 °F 74% 30.16 in 10.0 mi SW 6.9 mph - N/A   Clear